Home   Weather   Cham   Past weeks

Flag for Switzerland Past Weather in Cham, Zug, Switzerland — Yesterday and Last 2 Weeks

Now
44 °F

Quite cool.


Feels Like: 40 °F
Forecast: 40 / 48 °F
Wind: 7 mph from Southwest

Location: Zuerich-Fluntern

Current Time: Feb 21, 2017 at 12:30:25 am

Latest Report: Feb 20, 2017 at 11:00 pm


Visibility: N/A

Pressure: 30.24 "Hg

Humidity: 86%

Dew Point: 40 °F

Location of ChamLocation

Past Weather in Cham — Graph

°F

Cham Temperature Yesterday

Maximum temperature yesterday: 50 °F (at 3:00 pm)
Minimum temperature yesterday: 38 °F (at 7:00 am)
Average temperature yesterday: 44 °F

High & Low Weather Summary for the Past Weeks

 TemperatureHumidityPressure
High55 °F (Feb 16, 4:00 pm)100% (Feb 5, 11:00 pm)30.65 "Hg (Feb 5, 11:00 pm)
Low28 °F (Feb 9, 7:00 am)47% (Feb 16, 3:00 pm)29.73 "Hg (Feb 5, 11:00 pm)
Average36 °F84%30.27 "Hg
* Reported Feb 5 11:00 pm — Feb 20 11:00 pm, Cham, Weather by CustomWeather, © 2017

Note: Actual official high and low records may vary slightly from our data, if they occured in-between our weather recording intervals... More about our weather records

Advertising

Cham Weather History for the Previous 24 Hours

Scroll right to see more
 ConditionsComfort  
Time TempWeatherWind HumidityBarometerVisibility
11:00 pm
Mon, Feb 20
44 °FQuite cool.7 mph86%30.24 "HgN/A
10:00 pm45 °FQuite cool.8 mph81%30.23 "HgN/A
9:00 pm44 °FQuite cool.2 mph80%30.23 "HgN/A
8:00 pm45 °FCool.5 mph73%30.23 "HgN/A
7:00 pm45 °FCool.5 mph73%30.23 "HgN/A
6:00 pm46 °FCool.6 mph68%30.22 "HgN/A
5:00 pm49 °FCool.5 mph60%30.20 "HgN/A
4:00 pm49 °FCool.5 mph57%30.20 "HgN/A
3:00 pm50 °FCool.9 mph50%30.20 "HgN/A
2:00 pm50 °FCool.6 mph53%30.22 "HgN/A
1:00 pm48 °FCool.7 mph56%30.27 "HgN/A
12:00 pm47 °FCool.7 mph59%30.29 "HgN/A
11:00 am45 °FCool.8 mph59%30.30 "HgN/A
10:00 am42 °FQuite cool.6 mph62%30.31 "HgN/A
9:00 am41 °FQuite cool.6 mph67%30.31 "HgN/A
8:00 am40 °FChilly.3 mph74%30.31 "HgN/A
7:00 am38 °FChilly.2 mph79%30.31 "HgN/A
6:00 am39 °FChilly.2 mph77%30.29 "HgN/A
5:00 am40 °FChilly.3 mph77%30.29 "HgN/A
4:00 am40 °FQuite cool.3 mph76%30.29 "HgN/A
3:00 am41 °FQuite cool.3 mph74%30.29 "HgN/A
2:00 am42 °FQuite cool.3 mph70%30.30 "HgN/A
1:00 am41 °FQuite cool.3 mph72%30.31 "HgN/A
12:00 am43 °FQuite cool.2 mph66%30.30 "HgN/A
Weather by CustomWeather, © 2017

See weather overviewHow to use our weather pages